| time (UTC) | temp F | wind direction | speed knots | gust knots | rain 1hr in | rain 24hr in | rain mn in | humidity % | barometer mb |
| 20260504081542 | 66 | 0 | 0.0 | 1.7 | 0.00 | 0.00 | 0.00 | 74 | 1016.8 |
| 20260504044536 | 65 | 0 | 0.0 | 1.7 | 0.00 | 0.00 | 0.00 | 68 | 1019.3 |
| 20260504043043 | 65 | 0 | 0.0 | 1.7 | 0.00 | 0.00 | 0.00 | 68 | 1019.4 |
| 20260504041541 | 65 | 0 | 0.0 | 1.7 | 0.00 | 0.00 | 0.00 | 68 | 1019.3 |
| 20260504040044 | 65 | 0 | 0.0 | 0.9 | 0.00 | 0.00 | 0.00 | 69 | 1019.4 |
| 20260504034537 | 65 | 0 | 0.0 | 1.7 | 0.00 | 0.00 | 0.00 | 68 | 1019.3 |
| 20260504033050 | 65 | 0 | 0.0 | 1.7 | 0.00 | 0.00 | 0.00 | 68 | 1019.2 |
| 20260504031537 | 64 | 0 | 0.0 | 0.9 | 0.00 | 0.00 | 0.00 | 69 | 1019.2 |
| 20260504030041 | 65 | 110 | 0.0 | 0.9 | 0.00 | 0.00 | 0.00 | 68 | 1019.0 |
| 20260504024553 | 64 | 0 | 0.0 | 1.7 | 0.00 | 0.00 | 0.00 | 69 | 1019.2 |
| 20260504023038 | 65 | 0 | 0.0 | 0.9 | 0.00 | 0.00 | 0.00 | 69 | 1019.2 |
| 20260504021547 | 65 | 84 | 0.0 | 1.7 | 0.00 | 0.00 | 0.00 | 69 | 1019.0 |
| 20260504020037 | 65 | 0 | 0.0 | 1.7 | 0.00 | 0.00 | 0.00 | 68 | 1019.1 |
| 20260504014537 | 65 | 0 | 0.0 | 0.0 | 0.00 | 0.00 | 0.00 | 68 | 1019.2 |
| 20260504013047 | 66 | 0 | 0.0 | 0.9 | 0.00 | 0.00 | 0.00 | 66 | 1019.2 |
| 20260504011541 | 67 | 0 | 0.0 | 1.7 | 0.00 | 0.00 | 0.00 | 66 | 1019.2 |
| 20260504010038 | 68 | 0 | 0.0 | 0.0 | 0.00 | 0.00 | 0.00 | 65 | 1019.1 |
| 20260504004546 | 70 | 0 | 0.0 | 2.6 | 0.00 | 0.00 | 0.00 | 62 | 1019.0 |
| 20260504003037 | 71 | 0 | 0.0 | 3.5 | 0.00 | 0.00 | 0.00 | 60 | 1018.8 |
| 20260504001540 | 71 | 116 | 1.7 | 6.1 | 0.00 | 0.00 | 0.00 | 59 | 1018.8 |
| 20260504000044 | 72 | 101 | 0.9 | 4.3 | 0.00 | 0.00 | 0.00 | 57 | 1019.0 |
| 20260503234540 | 73 | 94 | 1.7 | 7.0 | 0.00 | 0.00 | 0.00 | 57 | 1019.3 |
| 20260503233037 | 73 | 82 | 2.6 | 7.8 | 0.00 | 0.00 | 0.00 | 55 | 1019.4 |
| 20260503231540 | 74 | 344 | 0.9 | 6.1 | 0.00 | 0.00 | 0.00 | 54 | 1019.4 |
| 20260503230037 | 74 | 142 | 1.7 | 6.1 | 0.00 | 0.00 | 0.00 | 54 | 1019.6 |
| 20260503224537 | 75 | 181 | 1.7 | 6.1 | 0.00 | 0.00 | 0.00 | 54 | 1019.7 |
| 20260503223041 | 75 | 91 | 2.6 | 8.7 | 0.00 | 0.00 | 0.00 | 51 | 1019.9 |
| 20260503221539 | 76 | 127 | 1.7 | 7.0 | 0.00 | 0.00 | 0.00 | 53 | 1019.9 |
| 20260503220040 | 76 | 133 | 2.6 | 6.1 | 0.00 | 0.00 | 0.00 | 51 | 1020.1 |
| 20260503214537 | 76 | 66 | 2.6 | 7.0 | 0.00 | 0.00 | 0.00 | 52 | 1020.3 |
| 20260503213037 | 76 | 47 | 2.6 | 7.8 | 0.00 | 0.00 | 0.00 | 51 | 1020.4 |
| 20260503211540 | 77 | 93 | 2.6 | 7.8 | 0.00 | 0.00 | 0.00 | 49 | 1020.5 |
| 20260503210040 | 77 | 129 | 2.6 | 7.0 | 0.00 | 0.00 | 0.00 | 49 | 1020.7 |
| 20260503204539 | 77 | 336 | 2.6 | 8.7 | 0.00 | 0.00 | 0.00 | 50 | 1020.9 |
| 20260503203041 | 77 | 121 | 2.6 | 8.7 | 0.00 | 0.00 | 0.00 | 51 | 1021.0 |
| 20260503201538 | 77 | 70 | 2.6 | 7.0 | 0.00 | 0.00 | 0.00 | 51 | 1021.5 |
| 20260503200037 | 77 | 133 | 1.7 | 8.7 | 0.00 | 0.00 | 0.00 | 48 | 1021.5 |
| 20260503194543 | 78 | 91 | 2.6 | 8.7 | 0.00 | 0.00 | 0.00 | 50 | 1021.7 |
| 20260503193043 | 78 | 354 | 2.6 | 7.0 | 0.00 | 0.00 | 0.00 | 49 | 1021.8 |
| 20260503191540 | 78 | 105 | 2.6 | 9.6 | 0.00 | 0.00 | 0.00 | 49 | 1022.1 |
| 20260503190043 | 78 | 59 | 3.5 | 7.8 | 0.00 | 0.00 | 0.00 | 50 | 1022.2 |
| 20260503184547 | 78 | 103 | 1.7 | 9.6 | 0.00 | 0.00 | 0.00 | 49 | 1022.4 |
| 20260503183040 | 77 | 80 | 4.3 | 8.7 | 0.00 | 0.00 | 0.00 | 50 | 1022.6 |
| 20260503181539 | 77 | 127 | 2.6 | 8.7 | 0.00 | 0.00 | 0.00 | 49 | 1022.7 |
| 20260503180037 | 77 | 62 | 2.6 | 7.8 | 0.00 | 0.00 | 0.00 | 51 | 1022.8 |
| 20260503174559 | 77 | 72 | 2.6 | 7.8 | 0.00 | 0.00 | 0.00 | 53 | 1023.0 |
| 20260503173041 | 77 | 354 | 2.6 | 9.6 | 0.00 | 0.00 | 0.00 | 51 | 1023.0 |
| 20260503171537 | 77 | 56 | 1.7 | 8.7 | 0.00 | 0.00 | 0.00 | 52 | 1023.3 |